Le nostre stazioni meteo in Italia

Pubblicità
Il mio iltempo24.it
Pantelleria, Italia (16470): Temperatura & dewpoint: 14.01.2019 07:00:00 - 20.01.2019 07:00:00 (CET)Pantelleria, Italia (16470): velocità del vento: 14.01.2019 07:00:00 - 20.01.2019 07:00:00 (CET)Pantelleria, Italia (16470): direzione del vento: 14.01.2019 07:00:00 - 20.01.2019 07:00:00 (CET)Pantelleria, Italia (16470): reduced air pressure: 14.01.2019 07:00:00 - 20.01.2019 07:00:00 (CET)Pantelleria, Italia (16470): visibility: 14.01.2019 07:00:00 - 20.01.2019 07:00:00 (CET)Pantelleria, Italia (16470): ore di luce: 14.01.2019 07:00:00 - 20.01.2019 07:00:00 (CET)
Data & Tempo tt [°C] td [°C] ff [km/h] ff [kn] dd ppp [hPa] vv [km] sd [min]
20.01.2019 07:00:00 9,8 7,0 15 8 O 1013,9 12 0
20.01.2019 06:00:00 - - - - - - - -
20.01.2019 05:00:00 - - - - - - - -
20.01.2019 04:00:00 - - - - - - - -
20.01.2019 03:00:00 - - - - - - - -
20.01.2019 02:00:00 - - - - - - - -
20.01.2019 01:00:00 - - - - - - - -
20.01.2019 00:00:00 - - - - - - - -
19.01.2019 23:00:00 - - - - - - - -
19.01.2019 22:00:00 - - - - - - - -
19.01.2019 21:00:00 - - - - - - - -
19.01.2019 20:00:00 - - - - - - - -
19.01.2019 19:00:00 11,0 8,2 5 3 O 1014,7 12 0
19.01.2019 18:00:00 12,2 9,4 5 3 O 1013,8 15 24
19.01.2019 17:00:00 12,4 9,4 5 3 ONO 1013,9 10 60
19.01.2019 16:00:00 12,4 9,4 9 5 O 1014,3 20 60
19.01.2019 15:00:00 12,2 9,2 9 5 O 1014,4 25 60
19.01.2019 14:00:00 12,4 9,4 11 6 ONO 1014,6 25 60
19.01.2019 13:00:00 12,8 10,0 5 3 ONO 1015,2 30 60
19.01.2019 12:00:00 12,6 9,6 8 4 ONO 1016,2 10 60
19.01.2019 11:00:00 12,4 9,6 11 6 ONO 1016,5 30 60
19.01.2019 10:00:00 12,0 9,2 8 4 NO 1016,0 30 18
19.01.2019 09:00:00 11,2 8,4 9 5 NO 1015,6 30 0
19.01.2019 08:00:00 10,8 8,0 9 5 ONO 1015,2 20 0
19.01.2019 07:00:00 11,4 8,6 11 6 O 1014,9 12 0
19.01.2019 06:00:00 - - - - - - - -
19.01.2019 05:00:00 - - - - - - - -
19.01.2019 04:00:00 - - - - - - - -
19.01.2019 03:00:00 - - - - - - - -
19.01.2019 02:00:00 - - - - - - - -
19.01.2019 01:00:00 - - - - - - - -
19.01.2019 00:00:00 - - - - - - - -
18.01.2019 23:00:00 - - - - - - - -
18.01.2019 22:00:00 - - - - - - - -
18.01.2019 21:00:00 - - - - - - - -
18.01.2019 20:00:00 - - - - - - - -
18.01.2019 19:00:00 11,8 9,0 4 2 SO 1015,6 20 0
18.01.2019 18:00:00 12,6 9,8 5 3 ONO 1015,2 20 0
18.01.2019 17:00:00 13,0 10,2 8 4 ONO 1015,0 20 48
18.01.2019 16:00:00 13,0 10,2 8 4 ONO 1015,0 20 54
18.01.2019 15:00:00 14,0 11,0 11 6 O 1014,8 20 60
18.01.2019 14:00:00 14,6 10,6 9 5 SO 1015,0 20 60
18.01.2019 13:00:00 14,8 10,4 9 5 OSO 1015,4 15 60
18.01.2019 12:00:00 15,0 11,2 9 5 OSO 1016,4 15 60
18.01.2019 11:00:00 14,6 11,0 9 5 OSO 1016,6 15 42
18.01.2019 10:00:00 14,0 11,2 9 5 OSO 1016,6 15 60
18.01.2019 09:00:00 12,2 9,4 9 5 SSO 1016,6 15 54
18.01.2019 08:00:00 11,2 8,4 18 10 SSO 1015,9 10 0
18.01.2019 07:00:00 11,2 8,4 18 10 SSO 1015,8 10 0
18.01.2019 06:00:00 - - - - - - - -
18.01.2019 05:00:00 - - - - - - - -
18.01.2019 04:00:00 - - - - - - - -
18.01.2019 03:00:00 - - - - - - - -
18.01.2019 02:00:00 - - - - - - - -
18.01.2019 01:00:00 - - - - - - - -
18.01.2019 00:00:00 - - - - - - - -
17.01.2019 23:00:00 - - - - - - - -
17.01.2019 22:00:00 - - - - - - - -
17.01.2019 21:00:00 - - - - - - - -
17.01.2019 20:00:00 - - - - - - - -
17.01.2019 19:00:00 11,8 9,0 11 6 SSO 1017,3 10 0
17.01.2019 18:00:00 12,2 9,4 18 10 SSO 1017,1 10 0
17.01.2019 17:00:00 12,8 10,0 18 10 SSO 1017,2 15 0
17.01.2019 16:00:00 13,2 10,4 18 10 OSO 1017,4 20 42
17.01.2019 15:00:00 14,0 11,2 18 10 OSO 1017,4 20 60
17.01.2019 14:00:00 14,0 11,0 - - - - - -
17.01.2019 13:00:00 14,6 11,6 24 13 SO 1018,2 20 60
17.01.2019 12:00:00 14,6 11,6 29 16 OSO 1019,1 25 60
17.01.2019 11:00:00 13,8 10,8 24 13 SO 1019,7 25 60
17.01.2019 10:00:00 12,8 9,9 22 12 SO 1019,8 20 30
17.01.2019 09:00:00 12,2 9,4 18 10 SO 1019,7 18 0
17.01.2019 08:00:00 11,2 8,4 22 12 SO 1019,8 18 0
17.01.2019 07:00:00 11,0 8,3 16 9 SO 1019,9 15 0
17.01.2019 06:00:00 - - - - - - - -
17.01.2019 05:00:00 - - - - - - - -
17.01.2019 04:00:00 - - - - - - - -
17.01.2019 03:00:00 - - - - - - - -
17.01.2019 02:00:00 - - - - - - - -
17.01.2019 01:00:00 - - - - - - - -
17.01.2019 00:00:00 - - - - - - - -
16.01.2019 23:00:00 - - - - - - - -
16.01.2019 22:00:00 - - - - - - - -
16.01.2019 21:00:00 - - - - - - - -
16.01.2019 20:00:00 - - - - - - - -
16.01.2019 19:00:00 10,0 6,8 13 7 SSO 1022,6 15 0
16.01.2019 18:00:00 12,0 7,5 16 9 SSO 1022,3 18 18
16.01.2019 17:00:00 12,2 7,5 16 9 SO 1022,1 20 60
16.01.2019 16:00:00 13,0 7,0 18 10 SSO 1022,1 10 60
16.01.2019 15:00:00 13,2 7,3 21 11 SSO 1022,3 30 60
16.01.2019 14:00:00 13,4 7,4 21 11 SO 1022,7 30 60
16.01.2019 13:00:00 13,2 7,4 21 11 SSO 1023,4 30 60
16.01.2019 12:00:00 13,0 8,0 13 7 SSO 1023,9 30 60
16.01.2019 11:00:00 12,6 7,9 21 11 S 1024,7 30 60
16.01.2019 10:00:00 11,8 7,9 13 7 S 1024,5 30 42
16.01.2019 09:00:00 10,4 6,8 11 6 S 1024,3 30 12
16.01.2019 08:00:00 9,2 5,6 8 4 S 1024,3 30 0
16.01.2019 07:00:00 9,6 6,0 5 3 S 1023,4 15 0
16.01.2019 06:00:00 - - - - - - - -
16.01.2019 05:00:00 - - - - - - - -
16.01.2019 04:00:00 - - - - - - - -
16.01.2019 03:00:00 - - - - - - - -
16.01.2019 02:00:00 - - - - - - - -
16.01.2019 01:00:00 - - - - - - - -
16.01.2019 00:00:00 - - - - - - - -
15.01.2019 23:00:00 - - - - - - - -
15.01.2019 22:00:00 - - - - - - - -
15.01.2019 21:00:00 - - - - - - - -
15.01.2019 20:00:00 - - - - - - - -
15.01.2019 19:00:00 11,6 7,9 13 7 NNO 1020,7 15 0
15.01.2019 18:00:00 12,0 8,7 15 8 N 1019,9 15 0
15.01.2019 17:00:00 12,4 9,0 15 8 N 1019,1 15 54
15.01.2019 16:00:00 12,8 10,0 24 13 ONO 1018,6 15 48
15.01.2019 15:00:00 13,4 10,6 18 10 NNO 1018,0 15 54
15.01.2019 14:00:00 13,4 10,6 21 11 NNO 1017,7 15 54
15.01.2019 13:00:00 13,0 10,4 22 12 N 1017,7 10 18
15.01.2019 12:00:00 13,4 10,6 28 15 N 1017,6 10 60
15.01.2019 11:00:00 13,2 10,4 28 15 N 1017,6 10 60
15.01.2019 10:00:00 12,8 10,0 28 15 NNE 1016,8 10 30
15.01.2019 09:00:00 12,6 10,0 28 15 N 1015,8 7 0
15.01.2019 08:00:00 12,0 9,4 28 15 N 1014,9 7 0
15.01.2019 07:00:00 12,0 9,4 37 20 NNO 1014,5 7 0
15.01.2019 06:00:00 - - - - - - - -
15.01.2019 05:00:00 - - - - - - - -
15.01.2019 04:00:00 - - - - - - - -
15.01.2019 03:00:00 - - - - - - - -
15.01.2019 02:00:00 - - - - - - - -
15.01.2019 01:00:00 - - - - - - - -
15.01.2019 00:00:00 - - - - - - - -
14.01.2019 23:00:00 - - - - - - - -
14.01.2019 22:00:00 - - - - - - - -
14.01.2019 21:00:00 - - - - - - - -
14.01.2019 20:00:00 - - - - - - - -
14.01.2019 19:00:00 13,0 10,4 50 27 NO 1008,7 7 0
14.01.2019 18:00:00 13,2 10,5 46 25 NNO 1008,2 7 0
14.01.2019 17:00:00 13,2 10,5 48 26 NNO 1007,6 7 0
14.01.2019 16:00:00 13,6 10,4 61 33 NNO 1007,2 8 18
14.01.2019 15:00:00 13,4 10,8 65 35 NO 1006,6 8 0
14.01.2019 14:00:00 12,8 10,2 55 30 ONO 1006,7 7 0
14.01.2019 13:00:00 13,2 10,4 39 21 ONO 1007,2 11 12
14.01.2019 12:00:00 13,6 10,8 52 28 NO 1008,5 11 12
14.01.2019 11:00:00 13,4 10,6 55 30 NO 1009,3 8 0
14.01.2019 10:00:00 13,0 10,5 52 28 NO 1009,7 8 0
14.01.2019 09:00:00 12,8 10,2 42 23 NO 1009,5 8 0
14.01.2019 08:00:00 12,2 9,6 34 18 O 1009,6 8 0
14.01.2019 07:00:00 11,4 9,0 39 21 O 1010,7 8 0

tt = Temperatura
td = dewpoint
ff = velocità del vento
dd = direzione del vento
ppp = reduced air pressure
vv = visibility
sd = ore di luce

Stazioni seguenti

WeatherPro
AMSI
MeteoEarth